Regional Weather Roundup
Issued by NWS

Home | Current Version | Previous Version | Graphics & Text | Print | Product List | Glossary On
Versions: 1 2 3 4 5 6 7 8 9 10 11 12 13 14 15 16 17 18 19 20 21 22 23 24 25 26 27 28
000
ASUS45 KBOI 251610
RWRID

IDAHO REGIONAL WEATHER ROUNDUP
NATIONAL WEATHER SERVICE BOISE ID
1000 AM MDT THU AUG 25 2016

NOTE: "FAIR" INDICATES FEW OR NO CLOUDS BELOW 12000 FEET
WITH NO SIGNIFICANT WEATHER AND/OR OBSTRUCTIONS TO VISIBILITY

IDZ012-014-251700-
SOUTHWEST IDAHO


CITY           SKY/WX    TMP DP  RH WIND       PRES   REMARKS
BOISE          SUNNY     70  34  26 SE14      30.13S
CALDWELL       SUNNY     68  39  34 E13       30.13S
MOUNTAIN HOME  SUNNY     67  35  31 SE9       30.14S
$$

IDZ016-017-251700-
SOUTHCENTRAL IDAHO


CITY           SKY/WX    TMP DP  RH WIND       PRES   REMARKS
JEROME         SUNNY     60  38  43 E15       30.18S
TWIN FALLS     SUNNY     61  37  41 E17       30.17F
$$

IDZ019>023-251700-
SOUTHEAST IDAHO


CITY           SKY/WX    TMP DP  RH WIND       PRES   REMARKS
IDAHO FALLS    MOSUNNY   57  37  47 N13       30.23F SMOKE
POCATELLO      SUNNY     59  38  45 NE10      30.21S
REXBURG        SUNNY     56  37  49 N7        30.24S
$$

IDZ006-010-011-018-031-032-251700-
CENTRAL IDAHO MOUNTAINS


CITY           SKY/WX    TMP DP  RH WIND       PRES   REMARKS
MCCALL         SUNNY     60  37  42 CALM      30.22F
HAILEY         SUNNY     59  34  38 NW5       30.23F
STANLEY          N/A     51  31  46 CALM      30.31F
SALMON         SUNNY     55  37  50 CALM      30.26F
CHALLIS        SUNNY     57  31  37 E5        30.26F
$$

IDZ002-004-006-007-026-251700-
NORTHERN IDAHO


CITY           SKY/WX    TMP DP  RH WIND       PRES   REMARKS
LEWISTON       SUNNY     67  42  40 CALM      30.15S
LOWELL           N/A     57  46  66 CALM      30.19F
COEUR D`ALENE  SUNNY     66  46  48 NE10      30.19F
MULLAN PASS    SUNNY     53  33  46 VRB3      30.32R
$$




USA.gov is the U.S. government's official web portal to all federal, state and local government web resources and services.